Flag for Norway Weather past 2 weeks in Mysen, Norway

Now
38 °F

Passing clouds.


Feels Like: 34 °F
Forecast: 31 / 35 °F
Wind: 5 mph from Southwest

Location: Rygge

Current Time: Jan 28, 2015 at 2:28:06 AM

Latest Report: Jan 28, 2015 at 1:00 AM


Visibility: 19 mi

Pressure: 29.61 "Hg

Humidity: 90%

Dew point: 35 °F

Location of MysenLocation

Historic Weather in Mysen — Graph

°F

Mysen temperature yesterday

Maximum temperature yesterday: 38 °F (at 9:00 PM)
Minimum temperature yesterday: 29 °F (at 7:00 AM)
Average temperature yesterday: 33 °F

Past Weeks' High & Low Weather Summary

 TemperatureHumidityPressure
High44 °F (Jan 16, 1:00 PM)100% (Jan 24, 4:00 PM)30.26 "Hg (Jan 24, 4:00 PM)
Low12 °F (Jan 23, 8:00 AM)62% (Jan 13, 5:00 AM)28.85 "Hg (Jan 16, 7:00 AM)
Average33 °F89%29.71 "Hg
* Reported Jan 13 1:00 AM — Jan 28 1:00 AM, Mysen, Weather by CustomWeather, © 2014

Note: Actual official high and low records may vary slightly from our data, if they occured in-between our weather recording intervals... More about our weather records

Advertising

Mysen weather history for previous 24 hours

 ConditionsComfort  
Time TempWeatherWind HumidityBarometerVisibility
1:00 AM
Jan 28
38 °FPassing clouds.5 mph90%29.61 "Hg19 mi
12:00 AM38 °FOvercast.5 mph91%29.63 "Hg11 mi
11:00 PM
Jan 27
38 °FPassing clouds.6 mph88%29.67 "Hg11 mi
10:00 PM38 °FPassing clouds.5 mph85%29.70 "Hg11 mi
9:00 PM38 °FOvercast.5 mph80%29.74 "Hg16 mi
8:00 PM38 °FOvercast.6 mph76%29.76 "Hg22 mi
7:00 PM35 °FOvercast.2 mph83%29.80 "Hg22 mi
6:00 PM35 °FPassing clouds.5 mph83%29.81 "Hg19 mi
5:00 PM34 °FClear.5 mph87%29.83 "Hg28 mi
4:00 PM34 °FSunny.5 mph80%29.84 "Hg28 mi
1:00 PM36 °FSunny.2 mph76%29.88 "Hg22 mi
12:00 PM34 °FSunny.1 mph84%29.88 "Hg25 mi
11:00 AM34 °FSunny.1 mph77%29.88 "Hg31 mi
10:00 AM30 °FSunny.No wind86%29.87 "Hg31 mi
9:00 AM29 °FSunny.1 mph87%29.88 "Hg25 mi
8:00 AM29 °FClear.1 mph90%29.87 "Hg28 mi
7:00 AM29 °FClear.2 mph90%29.85 "Hg31 mi
6:00 AM29 °FClear.2 mph93%29.82 "Hg25 mi
5:00 AM31 °FClear.5 mph86%29.79 "Hg31 mi
4:00 AM31 °FClear.5 mph90%29.80 "Hg31 mi
3:00 AM30 °FClear.2 mph99%29.79 "Hg31 mi
2:00 AM31 °FClear.3 mph99%29.76 "Hg22 mi
Weather by CustomWeather, © 2014

See weather overviewHow to use our weather pages